Vertical_Velocity
-1 -2 -2 -0 2 3 1 0 2 3 -0 2 1 -0 -0 -0 0 0 0 -0 -1 -1 -0 -0 3 5 5 4 2 -1 -0 0 0 1 1 1 1 0 -1 -0 2 5 11 11 10 8 6 -0 -3 -0 5 7 5 2 -0 0 -0 -1 -1 -2 -2 -1 1 2 -1 -4 -3 -2 -2 -2 -2 -1 -1 -1 -1 -0 -0 0 0 -0 -0 -1 -1 -1 -1 -0 0 1 1 2 1 1 1 1 1 2 2 2 1 1 1 0 1
1 -1 -3 -1 3 5 5 2 -0 -0 1 1 -0 -1 -2 -1 -1 -0 -0 -1 -1 -1 -0 -0 1 3 5 3 1 -0 -0 -0 0 0 1 1 1 1 -0 0 -0 0 3 7 10 11 12 3 -0 1 6 6 4 1 -0 -0 0 1 -0 -2 -2 -0 4 -1 -4 -4 -2 -2 -2 -3 -2 -1 -0 -0 -0 -1 -1 -1 -0 0 -0 -0 -1 -1 -1 -1 -0 0 1 1 2 2 2 2 2 2 2 2 2 1 1 1 0
-0 -1 -2 -2 -1 -1 1 0 1 3 3 2 1 -1 -1 -1 -1 -1 -0 -0 -1 -1 -0 -0 -1 1 7 3 1 -0 -0 -1 -0 -0 0 1 2 2 1 -0 -0 -0 -0 2 4 4 4 3 1 1 5 3 2 1 0 -1 -1 -0 1 -0 -1 -0 4 -4 -5 -3 -2 -2 -2 -2 -2 -1 -0 0 0 -0 -1 -2 -1 -1 -0 -0 -0 -1 -1 -0 -0 0 0 1 1 2 2 2 2 2 2 2 2 2 2 1 1
0 -1 -2 -3 -3 -3 -3 -2 -1 1 1 2 4 4 2 -0 -1 -1 -1 -1 -1 -1 -0 -1 -1 -1 1 -0 -0 -0 -0 -1 -0 -0 -0 0 3 5 2 2 0 -1 0 0 1 1 -0 1 -1 -1 7 7 5 3 2 2 0 -1 -1 0 1 2 5 -4 -5 -2 -2 -1 -2 -2 -2 -1 -0 0 -0 -0 -0 -1 -1 -2 -2 -1 -1 -0 -0 -0 -0 0 0 1 1 1 1 1 1 2 2 2 2 2 2 2 2
4 2 0 -2 -3 -2 -3 -3 -2 -2 -2 -1 -1 -1 0 -0 -1 -2 -2 -2 -1 -1 -0 -0 2 4 4 0 -1 -1 -1 -1 -1 -1 -0 2 6 8 5 2 0 -1 0 1 1 1 1 1 -1 -2 2 5 5 6 10 13 7 -0 -0 0 3 5 2 -3 -4 -2 -1 -1 -1 -1 0 1 0 -0 -0 -1 -1 -0 0 -0 -1 -1 -0 -0 -0 -0 -0 0 0 0 1 1 1 1 1 1 2 2 2 2 3 3 2
4 7 7 6 4 2 3 1 -1 -3 -2 -2 -2 -2 -1 -0 -0 -1 -2 -1 -1 -1 -1 1 2 3 7 7 4 0 -1 -1 -1 -1 -0 2 6 9 6 1 -2 -2 -1 -1 0 1 2 2 0 -2 -4 -5 -7 -5 6 13 8 1 2 1 5 7 -1 -3 -2 -1 -1 -1 -1 -0 3 1 0 0 -0 -1 -1 -1 -0 0 -0 -0 -0 -0 -0 -0 -0 -0 0 0 1 1 1 0 0 1 1 1 2 2 2 2 2
6 5 6 8 7 5 2 1 -1 -1 -2 -2 -2 -2 -1 0 1 3 4 1 -0 -1 -1 1 3 5 3 6 3 -0 -1 -1 -1 -1 -0 -0 2 4 5 2 1 1 -0 -2 -2 -1 1 2 0 -1 1 -1 -2 0 6 5 1 -2 -2 1 9 12 -1 -2 -2 -1 -1 -0 -0 0 3 -0 -1 0 0 -1 -1 -1 -1 -1 -0 -0 -0 -0 -0 -0 -1 -1 -0 0 0 1 0 0 0 -0 0 0 1 2 2 2 2
2 1 0 5 5 3 0 -0 0 1 0 -1 -2 -2 -2 0 2 4 3 1 0 1 1 0 1 2 1 1 -0 -2 -2 -1 -1 -1 -1 -1 -1 -0 1 3 7 9 8 3 -0 0 4 1 -2 -2 6 10 11 12 13 2 -3 -3 -2 -3 5 9 1 -2 -2 -1 -1 -1 0 0 -1 -1 -1 0 0 0 -0 -1 -1 -1 -1 -0 -1 -0 -0 -0 -0 -1 -0 0 0 1 0 0 0 -0 -0 -0 0 1 2 2 2
-1 -1 -0 3 1 -0 2 0 4 8 4 -0 -1 -1 -3 1 4 5 2 4 6 7 4 0 -0 1 1 0 -1 -1 -2 -1 -1 -1 -1 -1 -1 -1 -1 -0 3 7 10 8 7 8 9 3 -2 -3 3 8 9 8 6 -2 -0 6 11 3 2 3 0 -3 -3 -2 -2 -1 -0 1 3 -0 -1 -0 1 0 -0 -1 -1 -1 -0 -0 -1 -1 -1 -0 -0 -0 -0 -0 0 1 1 0 0 0 -0 -0 -0 1 1 1 1
4 1 -1 1 1 0 0 1 -0 -1 -2 -1 -1 -1 -2 -1 1 1 0 0 1 1 1 -1 -1 -1 -0 -0 -1 -1 -1 0 0 -0 -1 -1 -1 -1 -1 -0 1 3 6 4 2 1 1 -1 -3 -3 -0 4 3 0 -2 -4 1 10 16 11 7 3 -2 -2 -1 -1 -2 -2 -1 1 6 2 -0 -1 -0 0 -0 -1 -1 -1 -0 1 -0 -1 -2 -1 -0 -0 -0 -0 -0 -0 0 0 0 0 -0 -0 -0 0 1 1 1
3 1 -1 -2 -2 -1 -0 0 0 0 0 2 1 -0 -1 -2 -1 2 7 6 3 1 2 -1 -1 -1 -1 -0 -1 -1 2 1 2 2 -1 -1 -1 -1 -1 -1 -0 1 4 2 0 -1 -2 -3 -3 -2 -0 0 1 0 -3 -4 -0 4 5 7 8 5 -3 -2 -1 -1 -1 -2 -2 0 5 2 0 -1 -0 -1 -1 -1 -2 -1 -0 1 2 -0 -2 -3 -2 -1 -1 -1 -1 -0 -0 0 1 0 0 -0 -0 -0 0 1 1
1 -0 -2 -2 -2 -1 -1 0 3 4 4 6 3 0 -2 -1 -1 0 1 1 -0 -1 1 -1 -1 -0 0 -0 -1 -0 2 0 3 5 1 -1 -1 -1 -1 -1 -0 1 2 3 2 0 -1 -2 -2 -1 0 2 3 1 -5 -5 -4 -3 -4 0 7 10 2 -1 -2 -1 -1 -2 -3 0 8 3 0 -1 -1 -2 -1 -0 -1 -1 -0 0 2 0 -2 -3 -3 -3 -2 -2 -2 -1 -1 -0 1 1 0 -0 -0 -0 -0 0 0
1 2 -1 -3 -2 -1 0 0 3 6 9 4 1 -2 -1 -2 -2 -2 -1 -0 -0 -1 -1 -2 1 3 5 3 1 1 1 -1 2 5 6 1 -1 -1 -1 -1 -1 -1 -0 1 1 1 -0 -1 -1 0 2 5 5 3 -1 -4 -6 -7 -7 -2 6 12 7 2 -0 -1 -2 -2 -2 0 9 3 -0 -1 -1 -2 -0 2 1 -0 -0 0 0 1 -1 -2 -3 -4 -3 -2 -3 -2 -2 -1 0 0 0 0 -0 -0 -0 0 0
1 3 3 1 -1 -1 -0 0 0 1 4 2 -1 -2 0 -2 -2 -2 -2 -1 -1 -1 -0 -2 -0 2 3 3 2 1 0 -2 -2 0 6 5 1 -2 -1 -1 -1 -1 -2 -1 -0 0 -0 1 1 2 1 3 3 3 2 0 -2 -5 -6 -4 3 9 10 6 2 -2 -3 -2 -1 2 9 5 2 -1 -1 -2 -1 1 1 0 -0 -0 -1 0 -0 -1 -2 -3 -3 -3 -3 -3 -3 -2 -1 -0 0 0 0 0 -0 0 0
-1 2 5 6 5 2 -0 0 0 -0 -1 -1 -1 -2 -1 -1 -1 -1 -1 -1 -1 -0 0 -0 -0 0 1 1 1 1 1 -1 -2 -2 -1 3 1 -2 -1 -1 -1 -1 -2 -1 -1 -0 -1 0 1 2 0 0 1 1 -0 -0 -1 -1 -2 -5 -2 3 7 6 2 -1 -3 1 1 2 5 6 4 1 -0 -0 -1 -1 -0 -0 -1 -1 -2 -1 -1 -1 -1 -2 -3 -3 -2 -2 -2 -2 -2 -1 -0 0 1 0 0 0 0
-1 1 5 4 7 8 2 1 0 -1 -1 -1 -1 -1 -1 -0 -1 -1 -1 -1 -0 0 1 0 0 0 1 0 0 1 2 1 -0 -1 -2 -1 -2 -2 -1 -1 -1 -1 -1 -1 -1 -1 -1 -1 0 1 0 0 -0 -1 -2 -2 -1 1 1 -4 -3 -0 2 2 1 0 -0 4 2 -1 1 2 1 0 -0 0 0 0 -0 0 -1 -2 -2 -1 -0 -0 0 -1 -2 -2 -1 -1 -1 -1 -1 -0 0 1 1 0 0 0 0
1 2 5 2 3 5 5 3 1 0 -0 -0 0 1 2 0 -0 -1 -1 -1 -0 1 1 0 -0 -0 -0 0 1 2 2 1 1 -0 -3 -3 -2 -1 -1 -1 -1 -1 -1 -2 -3 -3 -2 0 0 -0 -0 1 0 -0 -1 -2 -1 0 -0 -4 -3 -1 0 1 1 0 -2 0 -0 -1 0 1 1 0 -1 -0 0 1 1 1 -1 -3 -2 -1 0 1 2 1 -1 -2 -1 -0 -0 -0 -0 0 1 1 1 0 0 -0 -0
1 2 4 3 1 1 1 2 2 2 1 1 1 1 2 1 0 -0 -1 -0 0 1 1 -0 -1 -1 -1 0 1 2 1 1 1 -0 -2 -2 -2 -1 -1 -1 -1 -1 -2 -2 -3 -3 -1 -0 -1 -2 -1 -0 0 0 1 -0 -0 -1 -3 -4 -3 -1 1 1 1 -0 -2 0 0 -1 -0 0 1 0 -0 -0 -0 0 1 1 -1 -3 -3 -1 0 2 4 3 1 -2 -2 -1 -0 0 0 0 1 1 1 0 0 -0 -0
0 2 2 3 3 2 -2 -0 2 2 1 1 0 -1 -4 -3 -2 -1 -1 -1 -1 -0 -0 -0 -1 -1 -0 0 0 1 0 -1 -1 -0 3 6 4 -1 -2 -1 -1 -1 -1 0 0 -0 0 -0 -1 -3 -4 -3 -2 0 2 1 1 -1 -5 -5 -3 -0 1 2 1 -0 -0 2 1 -0 -2 -1 -0 0 -0 -1 -0 -0 0 1 -1 -3 -3 -1 1 3 8 4 1 -1 -3 -2 -1 -0 -0 -0 0 0 0 0 0 0 -0
-1 1 1 1 3 5 2 1 2 3 2 1 0 -2 -7 -5 -3 -1 0 -1 -2 -2 -1 -1 -0 -0 -0 0 0 1 3 1 -1 -0 4 10 8 2 -3 -3 -2 -1 0 3 3 2 0 0 -0 -1 -4 -3 -2 1 3 3 2 -1 -6 -5 -3 -0 1 1 1 0 -1 -2 -2 -2 -2 -1 -1 -0 -0 -1 -1 -1 -1 0 -1 -3 -3 -0 3 6 6 1 -1 -1 -3 -3 -2 -1 -1 -1 -0 -0 0 0 0 0 -0
-1 -1 -0 -1 -1 -0 2 3 4 6 7 6 2 -1 -3 -4 -3 -1 1 0 -1 -2 -2 -1 0 1 -0 -0 0 1 2 1 2 5 6 7 5 1 -4 -4 -3 -2 -1 1 1 1 -1 -0 -0 -1 -3 -2 -1 1 2 4 3 -1 -7 -5 -2 0 2 2 1 1 -1 -2 -2 -2 -2 -1 -1 -1 -1 -2 -2 -2 -1 -0 -1 -2 -3 1 4 4 -1 -3 -3 -2 -2 -3 -2 -2 -1 -1 -1 -0 0 0 0 0 0
-1 -2 -2 -2 -4 -7 -8 -2 3 8 13 13 9 5 6 2 -0 -1 -1 0 0 -0 -1 1 2 3 1 0 -0 -1 -2 -1 4 9 8 5 2 1 0 -2 -2 -2 -2 -2 -1 -2 -2 -2 -3 -3 -3 -2 -1 0 1 3 2 -2 -7 -4 -1 1 2 2 1 1 0 -1 -1 -1 -2 -1 -1 0 0 -1 -2 -2 -1 -1 -1 -2 -2 1 -0 -2 -3 -2 -2 -2 -2 -2 -2 -2 -1 -1 -1 -1 -0 0 0 0 0
-0 -1 -2 -2 -4 -7 -13 -9 -3 2 9 13 12 12 14 6 1 -1 -1 -0 0 0 1 2 3 4 2 2 0 -1 -3 1 6 9 3 -2 0 6 10 4 0 -2 -2 -2 -2 -1 -1 -2 -4 -4 -3 -2 -2 -2 -1 0 -0 -2 -4 -2 0 2 2 2 1 1 0 -0 -1 -1 -2 -1 1 2 1 -1 -2 -2 -2 -2 -1 -1 -2 -2 -4 -4 -1 -0 -1 -1 -1 -2 -2 -1 -1 -1 -1 -1 -0 -0 0 0 0
1 1 0 -1 -1 -3 -5 -6 -7 -7 -5 4 9 9 7 3 1 1 0 0 0 0 0 2 2 2 2 2 1 -0 -1 1 1 0 -3 -4 1 8 13 6 1 -1 -2 -2 -1 1 2 0 -2 -4 -3 -2 -2 -2 -2 -1 -1 -2 -1 -0 1 1 1 1 1 1 0 -0 -1 -2 -2 -2 1 4 5 2 -0 -2 -2 -2 -1 -0 -0 -4 -5 -4 -1 -0 -1 -1 -2 -2 -2 -1 -0 0 0 0 0 -0 0 0 -0
0 1 1 1 1 1 1 -0 -4 -9 -15 -6 3 5 -3 -1 2 5 4 2 1 1 -1 -0 1 2 4 4 2 1 -0 -0 -1 -2 -3 -2 1 5 7 4 1 1 2 0 1 2 3 1 -1 -3 -3 -2 -1 -1 -0 -2 -3 -3 -1 0 1 1 1 1 1 1 0 -0 -1 -2 -2 -2 -1 2 6 4 1 -2 -2 -2 -2 -1 2 -2 -4 -4 -2 -1 -1 -1 -2 -2 -2 -1 -0 1 1 1 1 0 0 0 -0
0 1 1 1 2 2 2 2 1 -2 -6 -3 1 4 0 -2 0 3 4 3 2 1 -1 -1 0 2 3 2 2 1 -0 -2 -2 -1 2 2 2 2 1 1 -0 -1 -1 -1 0 2 2 -0 -2 -4 -4 -2 -0 0 1 -2 -4 -4 -2 -1 -0 0 0 1 1 1 1 0 -0 -1 -2 -2 -1 0 3 4 2 -1 -2 -2 -3 -3 0 -2 -3 -3 -2 -1 -0 -0 -1 -0 -0 -1 -0 1 1 2 1 1 1 1 0
-1 -0 -0 1 2 2 2 2 2 1 1 1 2 3 1 1 -0 -1 -2 1 2 2 2 2 2 2 3 3 2 2 0 -2 -3 -2 -0 0 -0 -1 -1 0 1 0 -1 0 1 1 -1 -2 -3 -4 -4 -1 0 1 1 -2 -4 -4 -2 -1 -1 -0 -0 0 1 1 1 1 0 -0 -1 -1 -1 -0 0 3 4 3 -1 -2 -3 -3 -3 -4 -3 -2 -0 0 1 2 4 3 2 1 -0 0 1 2 2 1 1 1 0
-1 -1 -1 -1 0 1 1 1 1 1 0 -0 1 2 3 3 1 -2 -4 -4 -2 0 2 4 5 5 3 2 1 1 -0 -2 -2 -2 -2 -3 -3 -3 -3 -0 2 2 0 0 0 -0 -1 -0 -1 -2 -3 -2 -1 -0 -0 -2 -3 -4 -3 -2 -1 -1 -1 -0 -0 0 1 1 1 0 -0 -0 -0 0 0 2 5 6 0 -2 -3 -3 -4 -4 -3 -2 0 4 7 8 9 4 1 -0 -1 -1 0 1 2 1 1 1 1
-1 -1 -1 -1 -1 -0 0 1 1 1 -0 -1 -0 1 2 2 1 -0 -1 -3 -3 -2 -1 0 1 1 0 -1 -1 -1 -1 -2 -2 -2 0 -0 -0 -0 0 -1 -0 0 -0 -1 -1 -1 -1 -0 -0 -1 -1 -1 -2 -2 0 -1 -2 -3 -4 -3 -1 -1 -1 -1 -1 -1 0 1 1 0 0 0 0 1 1 0 3 6 4 -0 -2 -2 -2 -2 -2 -1 2 5 7 7 4 -0 -3 -3 -3 -3 -1 1 2 1 1 1 1
-1 -1 -1 -1 -1 -1 -1 -1 0 1 -1 -1 -0 1 1 1 0 -1 -1 -1 -2 -2 -2 1 3 5 5 2 -0 -2 -1 -0 -0 0 2 3 4 4 3 4 3 1 -1 -0 -1 -2 -3 -3 -3 -2 -1 -1 -1 -0 1 -0 -1 -2 -5 -4 -2 -1 -1 -1 -2 -1 -1 -0 0 0 0 0 1 1 1 1 2 4 5 0 -2 -2 -1 -1 -2 -1 4 1 -1 -2 -2 -3 -4 -4 -4 -3 -2 -0 2 1 1 1 1
-2 -1 0 -1 -1 -1 -2 -2 -1 -1 -2 -1 -0 1 1 1 1 -0 -1 -1 -0 -0 -2 -2 -0 3 8 5 2 -2 -4 -2 -1 -1 -2 -1 1 2 3 3 3 3 4 3 1 -1 -3 -4 -4 -4 -2 -2 -1 1 1 0 -0 -2 -5 -5 -3 -1 -1 -1 -2 -2 -1 -1 -0 0 0 0 1 1 2 2 2 2 2 2 1 -1 -1 -1 -1 -1 -0 -4 -4 -4 -1 -0 -1 -2 -3 -3 -2 -0 2 2 1 1 1
-1 -1 -0 -0 -0 -0 -1 -1 -2 -2 -3 -3 -1 0 1 1 1 0 -0 -0 -0 0 0 -2 -4 -5 -4 -1 2 6 10 5 0 -3 -4 -4 -3 -2 -1 -0 1 3 4 3 2 1 1 -1 -2 -4 -4 -3 -2 -1 1 1 0 -1 -2 -4 -4 -2 -0 -1 -1 -2 -2 -1 -1 -1 -0 -0 0 1 1 2 1 1 -0 4 4 2 -0 -1 -1 -0 3 -2 -3 -2 -0 1 1 -0 -2 -2 -1 0 2 2 2 1 1
-2 -1 -0 0 0 -0 -0 -0 -0 -1 -3 -3 -3 -2 -0 1 1 1 0 1 1 0 1 1 0 -1 -3 -2 -2 -0 3 4 4 2 -1 -4 -5 -5 -3 -1 1 1 1 1 1 2 4 3 1 -1 -2 -4 -4 -3 -1 0 1 1 2 -3 -4 -3 -0 -1 -1 -2 -2 -2 -2 -1 -1 -1 -0 0 1 2 2 1 -0 1 3 5 4 1 -1 0 5 -1 -3 -2 -1 0 1 1 0 -0 0 1 2 2 2 2 2
-2 -1 -1 -0 0 0 -0 0 0 -0 -2 -2 -3 -2 -2 -0 0 1 1 1 1 1 2 1 1 0 -0 -1 -3 -4 -4 -2 1 2 3 2 -0 -2 -3 -3 -2 -1 -0 -1 -1 1 3 2 2 2 2 -1 -3 -4 -3 -3 -1 0 2 -1 -3 -4 -2 -1 -1 -2 -2 -2 -2 -2 -2 -2 -1 -0 1 1 1 1 0 -1 1 3 5 3 3 5 4 -1 -3 -2 -1 -1 1 3 2 2 2 2 2 2 2 2 2
-2 -1 -1 -1 -0 0 1 1 1 -0 -1 -1 -1 -2 -2 -2 -1 -1 -0 -0 1 1 3 2 1 -0 0 -1 -2 -3 -3 -2 -1 -1 1 5 6 6 4 1 -0 -0 -1 -3 -2 -0 1 1 2 3 4 2 0 -1 -2 -1 -0 -0 -1 -1 -2 -3 -3 -2 -2 -2 -2 -2 -3 -2 -2 -2 -2 -1 0 1 1 1 0 -0 -0 2 5 5 3 2 3 1 -1 -2 -1 0 4 7 7 6 6 5 2 0 -0 0 1
-1 -1 -1 -1 -1 -1 0 1 1 -0 -1 -1 -1 -1 -2 -2 -2 -2 -2 -1 -1 0 1 2 1 0 -1 -1 -2 -2 -3 -1 -1 -2 -2 0 3 5 5 2 1 -0 -1 -2 -2 -0 1 0 2 4 6 4 3 2 1 1 0 -0 -2 -1 -1 -1 -3 -3 -3 -2 -2 -2 -2 -2 -2 -3 -2 -2 -1 0 1 1 1 0 -1 -0 4 6 5 2 1 3 1 -1 -0 2 5 7 8 6 3 0 -1 -1 -1 -1 -0
-1 -1 -0 0 -0 -0 -0 0 -0 -1 -1 -1 -0 -0 -1 -1 -1 -1 -2 -2 -2 -1 -1 0 1 0 -0 -0 -1 -2 -2 0 1 -0 -3 -1 1 1 1 2 1 0 -1 -2 -2 -0 -0 -1 0 3 5 5 4 3 1 -2 -2 -2 -2 -1 -0 -0 -2 -3 -3 -3 -3 -2 -2 -2 -2 -2 -3 -2 -2 -0 0 1 1 0 -0 -1 0 3 5 5 4 4 2 -0 2 3 2 0 0 -1 -3 -3 -3 -0 1 1 -1
-2 -1 -1 0 0 0 0 -0 -1 -1 -1 -1 -0 0 -0 -1 -1 -0 -1 -2 -2 -2 -2 -1 -1 -1 -0 0 -0 -1 -1 -0 -1 -3 -4 -2 -2 -2 -1 1 3 2 -0 -2 -2 -2 -2 -1 0 2 2 3 4 4 3 -0 -2 -3 -3 -1 -0 0 -1 -3 -3 -3 -3 -3 -3 -2 -1 -2 -2 -2 -2 -2 -1 0 1 0 0 -0 -1 1 2 4 5 4 2 1 5 3 -0 -3 -4 -3 -2 -1 -1 -0 1 1 -1
-1 -1 -1 -0 0 1 1 -0 -1 -1 -1 -1 -0 1 0 -0 -0 0 1 -1 -1 -1 -2 -2 -2 -2 -0 0 -1 -1 -1 -0 -1 -2 -2 -2 -2 -3 -1 -0 1 1 -1 -3 -3 -3 -4 -1 2 3 2 1 1 2 4 3 1 -1 -2 -2 -0 1 0 -2 -3 -3 -3 -3 -3 -3 -2 -1 -1 -2 -2 -2 -1 -1 -0 0 -0 -0 -0 -0 0 1 3 3 3 3 6 3 -1 -3 -4 -1 0 1 1 1 1 1 1
-1 -1 -1 -1 0 1 1 0 -1 -1 -2 -1 -1 0 0 -0 -0 0 2 1 1 0 -0 -2 -3 -3 -0 1 -0 -0 1 2 2 3 4 4 3 2 2 0 -0 -1 -3 -3 -2 -2 -4 -2 1 3 2 2 1 1 1 2 3 3 3 1 0 1 2 1 -0 -1 -2 -2 -3 -4 -4 -2 -1 -1 -1 -2 -2 -1 -1 -0 -0 -0 -0 -0 0 0 0 1 4 6 4 1 -1 -3 -3 -1 0 1 1 1 1 2 5
-2 -2 -1 -1 0 1 1 0 0 -1 -1 -1 -1 -0 -0 0 1 1 2 2 1 1 0 -0 -2 -3 -3 -0 0 0 1 2 2 3 3 4 4 4 5 5 5 4 3 1 -0 -1 -3 -3 -1 0 2 2 2 1 -0 -0 1 1 1 1 0 0 2 2 2 1 -1 -2 -2 -3 -4 -4 -3 -1 -0 -1 -1 -1 -1 -1 -1 -1 -1 -0 -0 0 0 0 2 4 2 -1 -2 -2 -2 -1 -1 -0 0 1 1 3 8
-3 -2 -2 -1 -0 0 0 1 0 -0 -0 -0 -0 -0 -0 1 1 2 2 2 1 0 0 1 0 -1 -3 -2 -1 -1 -2 -1 -1 -2 -3 -3 -3 -2 -0 2 3 5 6 3 1 -1 -3 -3 -2 -2 -0 1 2 2 0 -0 -0 -1 -1 -1 -1 0 1 1 1 -0 -1 -1 -1 -2 -3 -5 -4 -2 -0 -0 -1 -1 -1 -1 -1 -1 -1 -1 -0 0 1 0 1 1 0 -1 -1 -1 -1 -1 -1 -1 -1 0 0 2 5
-2 -2 -2 -1 -0 -0 0 0 0 -0 0 1 0 0 0 1 2 2 2 2 1 -0 1 1 1 -0 -2 -3 -2 -2 -2 -2 -2 -1 -2 -5 -6 -6 -5 -4 -3 -2 -0 -0 -1 -2 -3 -3 -3 -3 -1 0 0 1 0 1 2 2 1 -1 -1 -1 -0 0 -0 -1 -2 1 2 0 -2 -3 -4 -3 -1 0 0 -0 -1 -1 -1 -1 -1 -1 -1 -0 0 1 0 0 0 -1 -1 -1 -0 -1 -1 -1 -1 -0 -1 -1 1
-1 -1 -1 -0 -0 -1 -0 0 -0 -0 0 1 1 1 1 2 2 2 2 2 0 -1 -0 1 2 1 -1 -2 -2 -2 -2 -2 -0 3 5 5 3 2 -1 -2 -3 -4 -4 -4 -3 -2 0 -2 -3 -3 -2 -1 -1 -1 -1 -0 1 3 5 3 1 -0 -2 -3 -2 -2 -2 -1 1 1 -1 -2 -3 -4 -2 0 1 0 -0 -1 -1 -1 -1 -2 -2 -1 -0 -0 -0 -0 -0 -1 -0 -0 -0 -1 -1 -1 -1 1 -1 -3 -2
-2 -1 -1 -0 -1 -1 -0 -0 -0 -1 0 1 1 1 2 3 2 2 2 1 0 -1 -2 -0 1 2 1 -1 -2 -3 -2 -2 -1 1 3 5 5 3 0 -0 -0 -0 -0 -1 -1 -0 1 0 -0 -1 -3 -2 -1 -2 -2 -1 -0 1 3 3 2 1 -1 -3 -3 -2 -2 -2 -2 -2 -2 -2 -3 -3 -2 -1 -1 -0 -1 -1 -1 -1 -1 -2 -2 -2 -1 -1 -1 -1 -1 -1 1 2 0 -0 -1 -1 -1 -1 -2 -3 -2
-2 -2 -1 -1 -2 -2 -1 -1 -1 -1 -0 -0 0 1 2 2 2 2 1 0 -0 -0 -1 -1 -0 0 1 0 -1 -2 -3 -2 -3 -4 -3 -2 -1 -1 -3 -1 1 2 2 2 2 2 2 2 2 1 0 -1 -2 -2 -1 -2 -0 1 1 0 1 2 1 -1 -2 -3 -2 -1 -2 -3 -2 -1 -1 -1 -3 -3 -3 -2 -2 -1 -0 0 -0 -1 -1 -1 -1 -1 -1 -2 -3 -1 3 6 1 -0 -1 -1 -1 -2 -2 -2 -1
-1 -1 -1 -1 -2 -2 -1 -1 -1 -1 -1 -1 -1 -0 1 1 1 1 1 0 -0 0 1 -1 -1 -2 -1 -1 -1 -1 -0 -0 -0 -0 0 1 1 -0 -3 -2 -2 -2 -3 -4 -4 -2 1 1 1 1 2 -1 -2 -2 -2 -2 -1 -0 -1 -1 0 1 1 -0 -1 -2 -3 -1 -2 -3 -3 -1 0 1 -1 -4 -4 -3 -3 -2 -1 0 2 1 0 -0 -0 -1 -1 -2 -4 -2 4 7 2 -0 -1 -1 -1 -2 -2 -1 0
-1 -1 -1 -1 -2 -2 -1 -1 -1 -2 -2 -2 -2 -1 0 1 1 2 2 2 1 1 2 0 -1 -2 -2 -3 -2 -0 1 1 3 4 3 1 1 2 2 -1 -4 -6 -7 -7 -8 -8 -7 -6 -5 -4 -2 -2 -2 -3 -3 -3 -2 -1 -2 -0 1 1 -0 -1 -2 -2 -2 -2 -2 -2 -3 -2 0 1 0 -3 -3 -3 -3 -2 -2 -1 1 2 1 1 0 -0 -1 -2 -3 -2 -0 2 4 4 2 -1 -2 -2 -1 -0 1
-1 -1 -1 -1 -2 -2 -2 -2 -2 -2 -2 -2 -3 -2 -1 -0 1 2 3 3 3 3 1 1 1 1 -1 -2 -1 0 0 1 2 2 1 -1 -3 -4 -2 -2 -4 -7 -8 -6 -5 -6 -9 -9 -7 -5 -4 -3 -3 -4 -3 -3 -3 -3 -2 1 2 1 -2 -2 -2 -1 -1 -2 -2 -2 -2 -2 -0 0 -0 -2 -2 -2 0 -0 -0 -0 -1 1 2 2 1 0 -0 -1 -2 -2 -2 -2 2 6 5 2 -1 -2 -1 0 1
-1 -1 -1 -1 -1 -2 -2 -3 -3 -3 -2 -2 -2 -2 -2 -1 -0 1 1 3 4 3 -0 0 2 4 2 1 1 1 0 0 0 -1 -4 -3 -3 -4 -5 -2 1 3 2 5 6 5 -1 -4 -5 -5 -3 -3 -3 -4 -4 -3 -3 -3 -2 0 1 -0 -2 -2 -1 0 -0 -1 -2 -3 -2 -1 -1 -1 -1 -2 -3 -3 -1 -0 2 2 1 0 1 2 2 1 -1 -1 -1 -1 -2 -1 1 4 3 1 -1 -2 -2 -1 0
0 0 0 -1 -1 -2 -2 -2 -3 -3 -3 -3 -2 -2 -2 -1 -1 -1 -1 1 2 3 1 -1 0 2 3 2 1 0 -1 0 -1 -2 -3 -1 2 5 6 5 3 1 -2 1 4 7 6 -2 -7 -8 -5 -4 -4 -4 -4 -3 -3 -3 -3 -2 -1 -1 -3 -2 -0 1 1 -1 -2 -2 -1 -1 -1 -1 -2 -3 -4 -4 -3 -2 -0 2 5 2 1 1 2 1 -1 -2 -2 -1 -1 -1 2 4 3 -0 -1 -1 -2 -2 -1
1 2 1 -1 -1 -2 -2 -2 -2 -2 -3 -4 -4 -4 -3 -3 -2 -1 -2 -1 0 2 2 2 -0 -2 -0 0 -0 -1 -2 0 -0 0 2 2 1 2 7 6 2 -4 -8 -6 -5 -3 4 1 -4 -8 -10 -8 -6 -5 -4 -2 -2 -3 -3 -3 -2 -2 -2 -1 0 1 -0 -1 -2 -2 -1 -1 -2 -2 -3 -3 -3 -2 -1 -2 -1 0 3 4 2 0 0 1 -0 -1 -2 -1 -1 -1 0 2 1 0 0 0 -1 -2 -2
2 2 1 -0 -1 -1 -1 -2 -1 -1 -1 -2 -3 -4 -4 -3 -3 -2 -2 -1 -1 -0 1 3 1 -2 -4 -3 -2 -2 0 2 2 2 3 1 -3 -5 -3 2 1 -3 -5 1 -3 -7 -4 2 3 -0 -7 -7 -6 -4 -1 -0 -1 -2 -2 -2 -3 -3 -2 -1 -0 -0 -1 -2 -2 -2 -1 -1 -2 -4 -5 -4 -3 -2 -1 -1 -1 -1 -0 2 3 2 -1 1 2 1 -0 -1 -1 -0 -0 -0 -0 -0 0 2 2 2 1
2 2 2 1 -0 -1 -1 -1 -2 -1 -0 -1 -2 -3 -4 -3 -2 -2 -2 -1 -1 -1 -1 0 0 -1 -3 -3 -3 -3 -1 1 2 2 1 4 3 1 -0 1 1 2 2 10 8 -0 -14 -4 3 8 12 7 4 2 2 1 -0 -1 -1 -3 -3 -2 1 2 1 -0 -2 -3 -3 -2 -1 -1 -2 -3 -4 -4 -4 -3 -1 -0 -1 -1 0 1 2 2 0 -0 1 2 3 1 -0 -0 -0 -0 -0 -0 -0 1 2 3 6
1 2 2 1 1 0 -0 -0 -1 -1 -1 -1 -1 -1 -3 -2 -2 -1 -1 -1 -1 -1 -2 -1 -0 0 0 -2 -3 -3 -4 -2 -0 1 0 3 4 3 4 2 0 -0 0 6 5 -2 -18 -13 -8 -1 11 14 8 2 2 1 -0 -1 -1 -2 -2 -2 2 4 2 0 -2 -5 -4 -2 -0 -0 -1 -2 -4 -4 -3 -2 -2 -2 -1 -1 -1 1 3 3 1 -1 -0 1 4 2 1 -1 -1 -1 -0 -0 -0 -0 -2 -0 7
1 1 2 2 2 1 1 -0 -0 -1 -1 -0 -1 -1 -1 -1 -1 -0 -0 0 0 1 0 -1 -1 0 2 -0 -2 -4 -5 -5 -2 1 1 1 3 4 5 4 4 5 6 5 -2 -8 -11 4 8 5 -1 8 6 1 0 1 1 1 1 1 -1 -1 1 3 2 0 -1 -3 -3 -2 -1 -1 -1 -2 -4 -4 -3 -3 -4 -3 -2 -0 -0 0 1 2 2 0 -1 0 2 2 1 -1 -2 -2 -1 -1 -0 -0 -1 1 6
1 1 1 2 2 2 1 -0 -0 -0 -0 0 -0 -0 -1 -1 -1 -1 -1 0 1 1 1 0 -0 -0 1 1 -0 -3 -4 -5 -3 -0 2 2 2 3 3 3 6 8 10 6 2 3 11 17 10 -1 -7 4 6 5 2 2 2 2 4 3 2 0 -1 1 1 1 0 -1 -2 -3 -2 -1 -2 -2 -3 -2 -2 -2 -4 -4 -3 -2 -3 -1 1 2 1 0 -1 -1 -1 1 0 -1 -3 -3 -2 -2 -1 -0 -0 1 3
1 1 1 1 2 2 2 1 1 0 0 0 1 0 -0 -1 -1 -1 -0 1 1 2 2 2 1 -0 -0 1 1 -0 -2 -3 -4 -3 -0 1 0 0 1 1 0 -0 1 2 4 5 7 3 4 3 -2 1 4 5 2 1 1 -0 -1 1 2 2 1 0 0 1 1 0 -1 -2 -1 -2 -2 -2 -2 0 1 0 -2 -3 -3 -4 -5 -1 1 2 1 1 1 -0 -2 -2 -2 -1 -2 -2 -2 -2 -2 -1 0 0 -0
1 1 1 1 2 2 2 2 2 1 1 1 1 0 -0 -0 -0 0 0 1 1 2 2 3 2 2 1 1 2 1 -1 -1 -2 -2 -2 -3 -2 -0 1 -0 -2 -4 -4 -1 1 3 8 4 1 1 2 -2 -1 2 4 3 1 -1 -4 -3 -1 1 1 1 0 1 1 1 -0 -1 -1 -2 -3 -3 -1 -0 0 0 0 -1 -3 -4 -3 0 1 2 2 2 2 2 -0 -2 -2 -1 0 -0 -1 -2 -2 -1 -0 0 -0
1 2 1 1 1 1 1 1 1 2 1 1 1 1 1 0 1 1 0 0 1 1 2 3 3 2 2 2 3 2 1 -1 -1 0 1 -2 -3 -1 3 5 5 4 2 0 -0 2 6 5 5 5 4 4 1 -2 1 6 6 2 -2 -3 -2 -1 0 -1 -1 -0 -0 1 1 2 1 0 -2 -3 -3 -3 -2 -1 -0 -0 -1 -3 -2 -2 -1 -0 1 2 3 3 2 1 -0 -0 1 2 1 -0 -1 -1 -1 -0 -0
1 2 1 0 0 1 1 1 1 1 1 1 1 1 2 2 1 1 1 0 0 1 2 2 2 2 3 3 3 3 1 -1 -1 0 3 1 -3 -5 -3 -1 1 2 1 1 1 2 4 5 4 4 4 5 3 -1 -8 -0 6 9 3 -1 -2 -2 -2 -3 -3 -1 -1 0 1 2 2 2 1 -1 -3 -4 -3 -2 -2 -1 -0 0 0 -1 -2 -2 -1 1 2 3 2 2 1 0 1 3 2 1 0 -0 -0 -0 0
Height
1540 1540 1540 1540 1539 1538 1538 1538 1538 1538 1537 1537 1536 1536 1535 1535 1535 1535 1535 1534 1534 1534 1534 1535 1535 1535 1534 1534 1534 1534 1533 1533 1533 1533 1533 1533 1533 1533 1533 1533 1533 1533 1534 1534 1534 1533 1534 1535 1536 1537 1537 1538 1538 1538 1538 1538 1538 1538 1538 1538 1538 1538 1539 1538 1538 1538 1538 1538 1539 1539 1539 1539 1540 1540 1540 1541 1541 1541 1541 1541 1541 1541 1541 1541 1541 1542 1542 1542 1542 1542 1542 1543 1543 1543 1543 1543 1543 1543 1544 1544 1544 1545 1545
1539 1539 1539 1539 1538 1538 1538 1537 1537 1536 1536 1536 1535 1535 1534 1534 1534 1534 1533 1533 1533 1533 1533 1533 1533 1533 1533 1533 1533 1533 1533 1533 1532 1532 1533 1533 1533 1533 1533 1533 1533 1533 1533 1533 1533 1533 1533 1534 1535 1536 1537 1537 1537 1537 1538 1538 1537 1537 1537 1537 1537 1538 1538 1537 1537 1537 1538 1538 1538 1538 1539 1539 1539 1540 1540 1540 1540 1541 1541 1541 1541 1541 1541 1541 1541 1541 1541 1542 1542 1542 1542 1542 1542 1542 1542 1543 1543 1543 1543 1543 1544 1544 1545
1539 1538 1538 1538 1537 1537 1537 1536 1536 1535 1535 1535 1534 1534 1533 1533 1533 1533 1533 1533 1532 1532 1532 1533 1533 1532 1532 1532 1532 1531 1531 1531 1531 1531 1531 1531 1532 1532 1532 1532 1532 1532 1532 1532 1532 1532 1533 1533 1533 1534 1536 1536 1537 1537 1536 1536 1536 1536 1536 1536 1536 1537 1537 1536 1536 1537 1537 1537 1537 1538 1538 1538 1539 1539 1539 1540 1540 1540 1540 1541 1541 1541 1541 1541 1541 1541 1541 1541 1541 1541 1542 1542 1542 1542 1542 1542 1542 1543 1543 1543 1543 1544 1544
1538 1538 1537 1536 1536 1536 1535 1535 1535 1534 1534 1533 1533 1533 1533 1532 1532 1532 1531 1531 1531 1531 1531 1531 1531 1531 1531 1531 1530 1530 1530 1530 1530 1530 1530 1530 1530 1530 1530 1530 1530 1531 1531 1531 1531 1532 1532 1532 1533 1534 1535 1536 1536 1535 1535 1535 1535 1536 1536 1536 1536 1536 1536 1535 1535 1536 1536 1536 1537 1537 1538 1538 1538 1538 1538 1539 1539 1540 1540 1540 1540 1540 1540 1540 1541 1541 1541 1541 1541 1541 1541 1541 1541 1541 1542 1542 1542 1542 1542 1543 1543 1543 1544
1538 1537 1536 1536 1535 1535 1534 1534 1534 1534 1533 1533 1533 1532 1532 1532 1531 1531 1530 1530 1530 1530 1530 1531 1530 1530 1529 1529 1529 1529 1529 1529 1529 1529 1529 1529 1529 1529 1529 1529 1529 1530 1530 1530 1530 1531 1531 1531 1532 1533 1534 1534 1534 1534 1534 1533 1533 1534 1535 1535 1535 1535 1534 1533 1534 1535 1535 1536 1536 1536 1537 1537 1537 1538 1538 1538 1538 1539 1539 1540 1540 1540 1540 1540 1540 1540 1540 1541 1541 1541 1541 1541 1541 1541 1541 1541 1542 1542 1542 1542 1543 1543 1543
1537 1536 1536 1535 1534 1534 1534 1534 1533 1533 1533 1532 1532 1532 1531 1531 1530 1530 1530 1529 1529 1529 1530 1530 1530 1529 1528 1528 1528 1528 1528 1528 1528 1528 1528 1528 1528 1528 1528 1528 1528 1528 1529 1529 1529 1530 1530 1530 1531 1531 1532 1532 1532 1532 1532 1532 1533 1533 1534 1534 1534 1534 1532 1533 1533 1534 1534 1535 1535 1536 1536 1536 1537 1537 1537 1538 1538 1538 1539 1539 1539 1540 1540 1540 1540 1540 1540 1540 1540 1540 1540 1540 1540 1541 1541 1541 1541 1541 1541 1542 1542 1543 1543
1536 1536 1535 1534 1534 1533 1533 1533 1533 1532 1532 1531 1531 1531 1530 1530 1529 1529 1529 1529 1529 1528 1528 1528 1529 1528 1528 1527 1527 1527 1527 1527 1527 1527 1527 1527 1527 1526 1526 1527 1527 1527 1527 1527 1528 1528 1529 1529 1529 1529 1530 1530 1530 1530 1530 1530 1531 1532 1533 1533 1533 1532 1531 1531 1532 1533 1533 1534 1534 1535 1535 1535 1536 1536 1537 1537 1538 1538 1538 1538 1539 1539 1539 1540 1540 1540 1540 1540 1540 1540 1540 1540 1540 1540 1540 1540 1541 1541 1541 1541 1542 1542 1542
1536 1535 1534 1534 1533 1533 1532 1532 1532 1531 1531 1530 1530 1530 1529 1529 1529 1528 1528 1528 1528 1528 1528 1528 1528 1527 1526 1526 1526 1526 1526 1526 1526 1526 1526 1526 1526 1525 1525 1526 1526 1526 1526 1526 1526 1527 1527 1528 1528 1528 1528 1528 1528 1528 1528 1529 1529 1529 1530 1532 1532 1530 1530 1530 1531 1532 1532 1533 1533 1534 1534 1534 1535 1536 1536 1537 1537 1537 1538 1538 1538 1538 1539 1539 1539 1539 1539 1540 1540 1540 1540 1540 1540 1540 1540 1540 1540 1540 1540 1541 1541 1541 1542
1534 1534 1534 1533 1533 1532 1531 1531 1531 1531 1530 1530 1529 1529 1528 1528 1528 1528 1527 1527 1527 1527 1527 1526 1526 1526 1525 1525 1525 1525 1525 1525 1525 1525 1525 1525 1524 1524 1524 1524 1524 1524 1524 1524 1525 1525 1525 1526 1526 1527 1527 1527 1527 1528 1527 1528 1528 1528 1528 1529 1530 1529 1529 1529 1530 1530 1531 1532 1533 1533 1533 1534 1534 1535 1535 1536 1536 1537 1537 1537 1538 1538 1538 1538 1539 1539 1539 1539 1539 1540 1540 1540 1540 1540 1540 1540 1540 1540 1540 1540 1541 1541 1541
1533 1533 1533 1533 1532 1531 1531 1530 1530 1529 1529 1528 1528 1528 1527 1527 1526 1526 1526 1526 1526 1526 1526 1525 1525 1525 1524 1524 1524 1524 1524 1524 1524 1524 1523 1523 1523 1523 1523 1523 1523 1524 1523 1523 1523 1524 1524 1524 1525 1526 1526 1527 1527 1527 1527 1527 1527 1527 1526 1527 1528 1528 1528 1528 1529 1529 1530 1531 1531 1532 1533 1533 1533 1534 1534 1535 1535 1536 1536 1537 1537 1537 1538 1538 1538 1538 1539 1539 1539 1539 1539 1539 1539 1539 1539 1539 1539 1540 1540 1540 1540 1541 1541
1532 1532 1531 1531 1530 1530 1530 1529 1529 1528 1528 1528 1527 1527 1526 1526 1525 1525 1525 1525 1525 1524 1524 1524 1524 1523 1523 1523 1523 1523 1523 1523 1523 1523 1523 1523 1523 1523 1522 1523 1523 1523 1523 1523 1523 1523 1523 1523 1524 1525 1525 1526 1526 1526 1526 1526 1526 1525 1525 1526 1527 1527 1527 1528 1528 1528 1529 1529 1530 1531 1532 1532 1532 1533 1533 1534 1535 1535 1535 1536 1536 1537 1537 1538 1538 1538 1538 1538 1538 1539 1539 1539 1539 1539 1539 1539 1539 1539 1539 1540 1540 1540 1540
1531 1531 1530 1529 1529 1529 1528 1528 1528 1528 1527 1526 1526 1525 1525 1524 1524 1524 1523 1523 1523 1523 1523 1523 1523 1523 1523 1523 1522 1522 1522 1522 1521 1522 1522 1521 1521 1521 1521 1522 1522 1522 1522 1522 1522 1522 1522 1523 1523 1524 1525 1525 1525 1525 1525 1525 1525 1524 1524 1525 1525 1525 1526 1526 1527 1527 1528 1528 1529 1530 1530 1531 1531 1532 1533 1533 1534 1534 1535 1535 1535 1536 1536 1537 1537 1537 1538 1538 1538 1538 1538 1538 1538 1539 1539 1539 1539 1539 1539 1539 1539 1540 1540
1530 1530 1529 1528 1528 1528 1528 1527 1527 1526 1525 1525 1524 1524 1524 1523 1523 1523 1522 1522 1522 1522 1522 1521 1521 1521 1522 1521 1521 1521 1521 1520 1520 1520 1520 1520 1520 1520 1520 1520 1521 1521 1521 1520 1520 1521 1521 1522 1523 1523 1524 1524 1524 1524 1523 1524 1523 1523 1523 1523 1523 1523 1524 1524 1525 1526 1527 1528 1528 1529 1529 1530 1530 1531 1532 1532 1533 1534 1534 1534 1535 1535 1535 1536 1536 1536 1537 1537 1537 1537 1538 1538 1538 1538 1538 1538 1538 1539 1539 1539 1539 1539 1539
1530 1529 1528 1527 1527 1527 1526 1526 1525 1525 1524 1523 1523 1523 1522 1522 1522 1521 1521 1521 1521 1521 1520 1520 1520 1520 1520 1520 1520 1520 1519 1519 1519 1519 1519 1519 1519 1519 1519 1519 1519 1519 1519 1519 1519 1520 1520 1521 1522 1522 1522 1522 1523 1523 1523 1523 1523 1523 1522 1522 1522 1522 1523 1523 1524 1525 1526 1527 1527 1528 1528 1528 1528 1529 1530 1531 1532 1533 1533 1533 1534 1534 1534 1535 1535 1535 1536 1536 1536 1537 1537 1537 1538 1538 1538 1538 1538 1538 1538 1539 1539 1539 1539
1529 1528 1527 1526 1526 1525 1525 1525 1524 1523 1523 1522 1522 1521 1521 1521 1521 1520 1520 1520 1520 1520 1519 1519 1519 1519 1519 1518 1518 1518 1518 1518 1518 1518 1518 1518 1518 1518 1518 1518 1518 1518 1518 1518 1518 1519 1519 1520 1520 1520 1521 1521 1521 1521 1521 1521 1522 1522 1521 1521 1521 1521 1522 1522 1523 1523 1524 1525 1526 1527 1527 1527 1527 1528 1529 1530 1531 1531 1532 1532 1533 1533 1533 1533 1534 1534 1535 1535 1535 1536 1536 1536 1537 1537 1537 1537 1538 1538 1538 1538 1538 1538 1539
1529 1528 1526 1525 1524 1524 1524 1523 1523 1522 1522 1521 1520 1520 1520 1519 1519 1519 1519 1519 1519 1518 1518 1518 1518 1518 1518 1518 1518 1518 1517 1517 1517 1517 1517 1517 1517 1517 1517 1517 1517 1517 1517 1517 1517 1518 1518 1519 1519 1519 1519 1519 1520 1520 1520 1520 1521 1521 1520 1519 1519 1520 1520 1521 1522 1523 1523 1524 1525 1525 1526 1526 1527 1527 1527 1528 1529 1530 1530 1531 1531 1531 1532 1532 1533 1533 1533 1534 1534 1534 1535 1535 1536 1536 1536 1537 1537 1537 1538 1538 1538 1538 1538
1528 1527 1525 1523 1523 1523 1523 1522 1522 1521 1520 1520 1519 1519 1518 1518 1518 1518 1517 1517 1517 1517 1517 1517 1517 1517 1517 1517 1517 1517 1517 1517 1516 1516 1516 1515 1515 1516 1516 1516 1516 1516 1516 1516 1516 1517 1517 1518 1518 1518 1518 1518 1518 1519 1519 1519 1519 1519 1518 1518 1518 1519 1520 1520 1521 1521 1522 1523 1523 1524 1525 1525 1525 1526 1526 1527 1527 1528 1529 1530 1530 1530 1530 1531 1532 1532 1533 1533 1533 1533 1534 1534 1535 1535 1535 1536 1536 1536 1537 1537 1537 1537 1538
1528 1527 1526 1523 1521 1521 1521 1521 1521 1520 1519 1519 1518 1517 1517 1517 1516 1516 1516 1516 1516 1516 1516 1516 1516 1515 1515 1515 1515 1516 1516 1516 1516 1516 1515 1514 1514 1514 1514 1514 1514 1515 1515 1515 1515 1516 1516 1516 1516 1516 1517 1517 1517 1518 1518 1518 1518 1517 1516 1516 1517 1518 1518 1519 1519 1520 1521 1522 1523 1523 1524 1524 1524 1524 1525 1525 1526 1527 1528 1528 1528 1528 1529 1529 1530 1531 1531 1532 1532 1533 1533 1533 1534 1534 1534 1535 1535 1536 1536 1536 1536 1537 1537
1527 1527 1525 1523 1521 1520 1519 1519 1520 1519 1518 1518 1517 1516 1516 1515 1515 1515 1514 1514 1514 1514 1514 1514 1514 1514 1514 1514 1514 1515 1515 1515 1515 1515 1515 1514 1513 1513 1513 1513 1514 1514 1514 1514 1514 1515 1515 1515 1515 1515 1515 1515 1516 1516 1517 1517 1516 1515 1514 1514 1515 1516 1517 1518 1518 1519 1519 1520 1521 1522 1523 1523 1523 1523 1523 1524 1524 1525 1526 1527 1527 1527 1528 1528 1529 1529 1530 1530 1531 1532 1532 1533 1533 1533 1534 1534 1534 1535 1535 1535 1536 1536 1536
1526 1525 1525 1523 1521 1519 1518 1518 1518 1518 1518 1517 1516 1516 1515 1514 1514 1513 1513 1513 1513 1513 1513 1513 1513 1513 1513 1513 1514 1514 1515 1515 1514 1515 1515 1514 1513 1513 1513 1513 1513 1513 1513 1513 1513 1513 1513 1514 1514 1514 1514 1514 1514 1515 1515 1515 1515 1513 1513 1513 1514 1515 1516 1516 1517 1517 1518 1519 1520 1520 1521 1521 1522 1522 1522 1523 1523 1524 1524 1525 1526 1526 1526 1527 1528 1528 1528 1529 1530 1531 1531 1532 1532 1532 1533 1533 1533 1534 1534 1534 1535 1535 1535
1524 1523 1523 1522 1521 1519 1518 1517 1517 1517 1517 1516 1516 1515 1515 1514 1513 1513 1512 1512 1512 1512 1511 1512 1512 1512 1512 1513 1513 1513 1513 1513 1514 1514 1514 1513 1513 1512 1512 1512 1512 1512 1512 1512 1512 1512 1512 1512 1512 1512 1513 1513 1513 1513 1513 1513 1513 1512 1511 1511 1512 1513 1514 1515 1515 1516 1517 1518 1518 1519 1519 1520 1520 1520 1521 1521 1522 1523 1523 1524 1524 1525 1525 1526 1527 1527 1528 1528 1529 1530 1530 1530 1531 1531 1532 1532 1533 1533 1533 1533 1534 1534 1534
1523 1522 1521 1520 1520 1518 1517 1516 1516 1516 1516 1515 1515 1515 1515 1514 1513 1513 1512 1511 1511 1511 1510 1511 1511 1511 1511 1511 1511 1511 1511 1511 1511 1511 1512 1512 1511 1511 1511 1510 1510 1510 1510 1510 1510 1510 1510 1510 1510 1510 1511 1511 1511 1511 1511 1511 1511 1510 1509 1510 1511 1512 1513 1513 1513 1514 1515 1516 1517 1517 1518 1518 1519 1519 1519 1520 1520 1521 1522 1522 1523 1523 1524 1524 1526 1527 1527 1527 1528 1528 1529 1529 1530 1530 1531 1531 1532 1532 1532 1533 1533 1533 1533
1522 1521 1520 1519 1518 1518 1516 1515 1515 1515 1514 1514 1514 1514 1514 1513 1513 1513 1512 1511 1510 1510 1510 1510 1510 1510 1510 1510 1510 1510 1509 1509 1509 1508 1509 1509 1510 1509 1509 1509 1509 1509 1509 1509 1509 1509 1508 1508 1508 1508 1509 1509 1509 1509 1508 1508 1508 1508 1508 1508 1509 1510 1511 1511 1512 1513 1513 1514 1515 1516 1516 1517 1518 1518 1518 1518 1519 1519 1520 1521 1521 1522 1523 1523 1524 1525 1525 1526 1527 1527 1528 1528 1529 1529 1530 1530 1531 1531 1531 1532 1532 1533 1533
1521 1520 1519 1518 1518 1517 1516 1515 1515 1514 1513 1513 1512 1512 1512 1512 1513 1513 1512 1511 1510 1509 1509 1509 1508 1508 1508 1508 1509 1508 1508 1508 1507 1507 1507 1508 1508 1508 1508 1508 1508 1508 1508 1508 1508 1508 1508 1507 1507 1507 1507 1507 1508 1507 1507 1506 1506 1506 1507 1507 1508 1508 1509 1509 1510 1510 1511 1512 1513 1513 1514 1515 1516 1516 1516 1517 1518 1518 1519 1519 1520 1521 1522 1522 1523 1523 1524 1525 1525 1526 1527 1527 1528 1528 1528 1529 1530 1530 1530 1531 1531 1532 1532
1519 1518 1518 1517 1517 1516 1515 1514 1514 1514 1513 1513 1512 1511 1511 1511 1512 1512 1512 1511 1510 1509 1509 1508 1508 1507 1507 1508 1508 1508 1507 1507 1507 1507 1507 1507 1507 1507 1507 1507 1507 1507 1507 1507 1507 1507 1506 1506 1505 1505 1505 1506 1506 1506 1506 1505 1504 1504 1505 1505 1506 1506 1507 1507 1508 1508 1509 1510 1511 1512 1513 1513 1514 1514 1515 1516 1516 1517 1517 1518 1518 1519 1520 1521 1521 1522 1522 1523 1524 1524 1525 1526 1526 1527 1528 1528 1529 1529 1529 1530 1530 1531 1531
1518 1517 1517 1516 1515 1515 1514 1514 1513 1513 1513 1513 1512 1511 1510 1510 1510 1511 1511 1511 1510 1509 1508 1508 1507 1506 1506 1506 1506 1506 1506 1506 1506 1506 1507 1507 1507 1506 1506 1506 1505 1505 1505 1505 1505 1505 1504 1504 1504 1504 1504 1504 1504 1504 1504 1503 1503 1503 1503 1504 1504 1505 1505 1506 1506 1507 1507 1508 1509 1510 1511 1512 1512 1513 1513 1514 1515 1515 1516 1517 1517 1518 1519 1519 1520 1520 1521 1522 1522 1523 1524 1524 1525 1526 1526 1527 1528 1528 1528 1529 1529 1529 1530
1517 1516 1515 1515 1514 1513 1513 1513 1512 1512 1511 1511 1511 1510 1509 1509 1508 1508 1509 1509 1509 1508 1508 1507 1507 1506 1505 1504 1504 1504 1504 1504 1505 1505 1505 1505 1505 1504 1504 1504 1503 1503 1503 1503 1503 1503 1503 1503 1502 1503 1503 1503 1503 1503 1502 1502 1501 1501 1502 1502 1503 1503 1503 1504 1504 1505 1505 1506 1507 1508 1509 1509 1510 1511 1512 1513 1513 1514 1514 1515 1516 1516 1517 1518 1518 1519 1519 1520 1521 1522 1522 1523 1523 1524 1525 1526 1527 1527 1528 1528 1528 1528 1529
1515 1515 1514 1513 1513 1512 1512 1511 1511 1510 1510 1509 1509 1509 1509 1508 1508 1507 1507 1507 1508 1508 1508 1507 1506 1505 1504 1504 1503 1503 1503 1503 1503 1503 1503 1503 1503 1503 1503 1503 1502 1502 1503 1502 1502 1502 1502 1501 1501 1501 1502 1502 1501 1501 1501 1500 1500 1499 1500 1501 1501 1502 1502 1502 1502 1503 1503 1504 1505 1506 1507 1508 1508 1509 1509 1511 1511 1512 1513 1513 1514 1515 1515 1516 1516 1517 1518 1519 1519 1520 1520 1521 1522 1523 1524 1525 1525 1526 1526 1527 1527 1527 1528
1514 1513 1513 1512 1511 1511 1510 1510 1509 1509 1508 1508 1508 1508 1507 1507 1506 1506 1505 1505 1505 1505 1505 1505 1504 1503 1503 1503 1502 1502 1502 1502 1502 1502 1502 1502 1502 1502 1502 1502 1502 1501 1501 1501 1500 1500 1500 1500 1499 1500 1500 1500 1500 1500 1499 1499 1499 1498 1498 1499 1499 1500 1500 1500 1501 1501 1502 1502 1503 1504 1505 1506 1506 1507 1508 1508 1509 1510 1511 1512 1512 1513 1513 1514 1515 1515 1516 1517 1518 1518 1519 1520 1521 1522 1523 1523 1524 1525 1525 1526 1526 1526 1527
1513 1512 1511 1510 1510 1509 1508 1508 1508 1507 1506 1506 1506 1506 1506 1505 1505 1504 1504 1504 1503 1503 1503 1504 1504 1503 1502 1502 1501 1500 1500 1500 1500 1500 1500 1501 1501 1501 1501 1501 1501 1500 1500 1500 1499 1498 1498 1498 1498 1498 1498 1498 1498 1498 1498 1498 1498 1497 1497 1497 1498 1498 1499 1499 1499 1499 1500 1500 1501 1502 1503 1504 1504 1505 1506 1506 1507 1508 1510 1510 1510 1511 1512 1513 1513 1514 1514 1515 1516 1517 1518 1518 1519 1520 1521 1522 1523 1523 1524 1524 1525 1525 1526
1512 1511 1510 1509 1508 1508 1507 1506 1506 1505 1505 1504 1504 1504 1504 1504 1503 1503 1503 1503 1502 1502 1502 1502 1502 1501 1501 1500 1500 1499 1499 1498 1498 1498 1498 1498 1499 1499 1499 1499 1499 1499 1498 1498 1497 1497 1496 1496 1496 1496 1496 1496 1497 1497 1497 1497 1496 1496 1495 1496 1496 1497 1497 1497 1498 1498 1498 1498 1499 1500 1501 1502 1503 1503 1504 1504 1505 1506 1507 1508 1508 1509 1510 1511 1511 1512 1513 1514 1514 1515 1516 1517 1517 1518 1519 1520 1521 1522 1523 1523 1524 1524 1525
1511 1510 1509 1508 1507 1506 1505 1505 1504 1503 1503 1503 1502 1502 1502 1502 1502 1502 1501 1501 1501 1500 1500 1499 1499 1499 1499 1499 1499 1499 1498 1498 1497 1497 1496 1496 1496 1496 1496 1497 1497 1497 1496 1496 1496 1496 1495 1495 1494 1494 1494 1494 1494 1494 1495 1495 1494 1494 1494 1494 1494 1495 1496 1496 1496 1496 1496 1497 1497 1498 1498 1499 1500 1501 1502 1502 1503 1504 1504 1505 1506 1508 1508 1509 1509 1511 1512 1513 1513 1513 1514 1515 1516 1516 1517 1518 1519 1520 1521 1522 1523 1523 1523
1510 1509 1508 1507 1506 1505 1504 1503 1503 1502 1501 1500 1500 1500 1500 1500 1500 1500 1500 1499 1499 1499 1498 1498 1498 1498 1498 1498 1497 1497 1497 1497 1496 1496 1495 1495 1494 1494 1494 1495 1495 1495 1495 1495 1495 1495 1495 1494 1493 1493 1492 1492 1492 1492 1493 1493 1493 1493 1493 1492 1492 1493 1494 1494 1494 1494 1495 1495 1495 1496 1496 1497 1498 1499 1500 1500 1501 1502 1503 1504 1505 1506 1507 1507 1508 1509 1510 1511 1511 1512 1513 1513 1514 1515 1515 1517 1518 1519 1520 1521 1521 1522 1523
1508 1508 1507 1506 1505 1504 1503 1502 1501 1500 1499 1498 1498 1498 1498 1498 1498 1498 1498 1498 1497 1497 1497 1497 1496 1496 1496 1496 1495 1495 1495 1495 1495 1495 1495 1494 1493 1493 1493 1493 1493 1493 1493 1493 1493 1493 1493 1493 1493 1492 1491 1491 1490 1491 1491 1491 1492 1492 1492 1491 1491 1491 1492 1492 1493 1493 1493 1493 1493 1494 1494 1495 1496 1497 1498 1498 1499 1500 1501 1502 1503 1504 1505 1506 1506 1507 1508 1509 1510 1510 1511 1512 1513 1513 1514 1515 1517 1518 1518 1519 1520 1521 1522
1508 1507 1506 1505 1504 1503 1502 1501 1500 1499 1498 1497 1496 1495 1495 1495 1495 1496 1496 1495 1495 1495 1495 1495 1494 1494 1494 1493 1493 1493 1493 1493 1493 1494 1494 1493 1493 1493 1492 1492 1491 1491 1491 1491 1491 1491 1491 1491 1491 1491 1490 1490 1489 1489 1490 1490 1490 1490 1490 1489 1489 1489 1490 1490 1491 1491 1491 1491 1492 1492 1492 1493 1494 1495 1496 1496 1497 1498 1499 1499 1501 1502 1503 1503 1504 1505 1507 1508 1508 1508 1509 1510 1511 1512 1513 1514 1515 1517 1518 1518 1519 1520 1520
1507 1506 1505 1504 1503 1502 1501 1500 1499 1498 1496 1495 1494 1494 1493 1493 1493 1493 1493 1493 1493 1493 1493 1493 1492 1492 1492 1492 1492 1492 1492 1492 1492 1492 1492 1492 1492 1492 1491 1490 1490 1490 1489 1489 1489 1489 1489 1489 1489 1489 1489 1488 1488 1488 1488 1488 1489 1489 1488 1488 1488 1488 1488 1488 1489 1489 1489 1489 1490 1490 1490 1491 1492 1493 1493 1494 1495 1496 1497 1498 1498 1499 1500 1501 1502 1503 1505 1506 1507 1507 1508 1509 1510 1511 1512 1513 1514 1515 1517 1517 1518 1518 1519
1507 1505 1504 1503 1502 1500 1499 1498 1497 1496 1495 1494 1493 1493 1492 1491 1491 1491 1491 1491 1491 1491 1490 1490 1490 1489 1489 1489 1489 1490 1490 1491 1490 1490 1489 1490 1490 1489 1489 1489 1488 1488 1488 1488 1488 1487 1487 1487 1487 1488 1488 1487 1487 1486 1486 1486 1486 1487 1487 1487 1487 1486 1486 1486 1487 1487 1487 1488 1488 1488 1489 1489 1490 1491 1492 1492 1493 1494 1495 1496 1497 1498 1499 1499 1500 1502 1503 1504 1505 1505 1506 1508 1509 1510 1510 1511 1512 1513 1514 1515 1516 1517 1518
1506 1504 1503 1502 1501 1499 1498 1497 1496 1494 1493 1493 1492 1492 1491 1490 1490 1489 1489 1488 1488 1488 1488 1488 1488 1487 1487 1487 1488 1488 1488 1488 1488 1488 1488 1488 1488 1487 1488 1488 1487 1486 1486 1486 1486 1486 1486 1485 1485 1485 1485 1486 1486 1485 1485 1484 1484 1485 1485 1486 1485 1485 1485 1485 1485 1485 1485 1485 1486 1486 1487 1487 1488 1488 1489 1490 1491 1492 1493 1493 1495 1496 1497 1498 1499 1500 1501 1502 1503 1503 1505 1506 1507 1508 1509 1509 1510 1511 1512 1513 1514 1515 1516
1505 1503 1502 1501 1500 1499 1497 1496 1494 1493 1492 1491 1491 1490 1490 1489 1488 1488 1488 1487 1487 1486 1486 1486 1485 1485 1485 1486 1486 1486 1486 1486 1487 1486 1486 1486 1485 1485 1486 1485 1485 1484 1483 1483 1484 1484 1484 1484 1483 1483 1483 1483 1483 1484 1484 1483 1483 1483 1483 1484 1484 1484 1483 1483 1483 1484 1484 1484 1484 1484 1485 1486 1486 1487 1488 1488 1489 1490 1491 1492 1493 1494 1495 1496 1497 1498 1499 1500 1501 1502 1503 1504 1505 1506 1507 1508 1508 1509 1510 1511 1513 1514 1515
1504 1503 1501 1500 1499 1498 1496 1495 1493 1492 1491 1490 1489 1489 1488 1488 1488 1487 1487 1486 1485 1485 1484 1483 1483 1483 1483 1484 1484 1485 1485 1485 1485 1485 1485 1484 1484 1484 1484 1483 1483 1483 1482 1481 1481 1481 1481 1481 1481 1481 1481 1481 1481 1481 1482 1482 1482 1482 1482 1482 1483 1483 1483 1483 1482 1482 1482 1483 1483 1483 1483 1483 1484 1485 1486 1486 1487 1488 1488 1489 1490 1492 1493 1494 1495 1496 1497 1498 1499 1500 1500 1502 1503 1504 1505 1506 1507 1508 1508 1510 1511 1512 1513
1503 1502 1501 1499 1498 1497 1496 1494 1492 1491 1490 1489 1488 1488 1487 1487 1486 1486 1485 1485 1484 1483 1482 1482 1482 1482 1481 1482 1482 1483 1483 1483 1483 1483 1483 1483 1483 1482 1482 1482 1482 1481 1480 1480 1479 1479 1479 1479 1479 1479 1479 1479 1479 1479 1479 1480 1480 1479 1479 1480 1480 1481 1481 1481 1481 1481 1481 1481 1481 1481 1481 1482 1482 1483 1484 1484 1485 1486 1486 1487 1488 1489 1490 1492 1493 1494 1495 1496 1498 1498 1499 1500 1501 1502 1503 1504 1505 1506 1507 1508 1510 1511 1512
1502 1501 1500 1499 1498 1496 1495 1493 1492 1490 1489 1488 1487 1487 1486 1486 1485 1485 1484 1483 1482 1481 1480 1480 1480 1480 1480 1480 1480 1480 1480 1480 1480 1480 1480 1480 1480 1480 1480 1480 1480 1479 1479 1478 1478 1477 1477 1477 1477 1477 1477 1477 1477 1477 1477 1478 1478 1477 1477 1477 1478 1478 1478 1478 1479 1479 1479 1479 1479 1480 1480 1480 1481 1481 1482 1483 1483 1484 1484 1485 1486 1487 1488 1489 1491 1492 1493 1494 1495 1497 1498 1499 1500 1501 1502 1503 1503 1504 1505 1507 1508 1510 1511
1502 1500 1499 1498 1497 1495 1494 1492 1491 1489 1488 1487 1486 1486 1485 1485 1484 1483 1483 1482 1480 1479 1478 1478 1478 1478 1478 1478 1478 1477 1478 1477 1478 1478 1478 1478 1477 1477 1477 1477 1477 1477 1477 1477 1476 1475 1475 1475 1475 1475 1475 1475 1475 1475 1475 1475 1476 1476 1476 1476 1475 1475 1475 1476 1476 1477 1477 1478 1478 1479 1479 1479 1479 1479 1480 1481 1481 1482 1483 1483 1484 1485 1486 1487 1488 1489 1491 1492 1493 1495 1496 1497 1498 1499 1500 1501 1502 1503 1504 1505 1506 1508 1509
1501 1500 1498 1498 1496 1494 1493 1492 1490 1489 1488 1487 1486 1485 1484 1483 1483 1482 1482 1480 1479 1478 1477 1477 1477 1476 1476 1476 1475 1476 1476 1476 1476 1476 1476 1476 1476 1475 1475 1474 1474 1474 1474 1474 1474 1473 1473 1473 1473 1473 1473 1473 1473 1473 1473 1473 1474 1474 1474 1474 1474 1474 1473 1473 1474 1475 1476 1476 1477 1477 1478 1478 1478 1478 1478 1479 1480 1480 1481 1481 1482 1483 1484 1485 1486 1487 1488 1490 1491 1493 1494 1495 1496 1497 1498 1499 1500 1501 1502 1503 1504 1506 1507
1500 1499 1498 1496 1495 1493 1492 1491 1489 1488 1487 1486 1485 1484 1483 1483 1482 1481 1480 1479 1478 1477 1476 1475 1475 1474 1474 1474 1474 1474 1474 1474 1474 1474 1474 1474 1474 1473 1473 1473 1473 1473 1473 1472 1472 1472 1472 1472 1472 1471 1471 1471 1470 1470 1470 1471 1471 1472 1472 1472 1473 1472 1472 1472 1472 1473 1473 1474 1475 1475 1476 1476 1477 1477 1477 1477 1478 1478 1479 1479 1480 1481 1482 1483 1484 1485 1486 1488 1489 1490 1492 1493 1494 1496 1496 1497 1498 1500 1501 1502 1503 1504 1505
1499 1498 1497 1495 1494 1493 1491 1490 1488 1487 1486 1485 1484 1483 1482 1481 1480 1479 1478 1477 1476 1476 1475 1474 1473 1472 1472 1472 1472 1472 1472 1472 1472 1472 1472 1472 1472 1471 1471 1471 1471 1471 1471 1470 1470 1470 1470 1470 1470 1469 1469 1469 1469 1468 1468 1468 1469 1469 1469 1469 1470 1470 1470 1470 1470 1471 1472 1472 1473 1473 1474 1475 1475 1475 1476 1476 1476 1477 1477 1478 1478 1479 1480 1481 1482 1483 1484 1485 1487 1488 1489 1491 1492 1494 1495 1496 1497 1498 1499 1500 1501 1502 1503
1498 1497 1496 1494 1493 1492 1490 1489 1488 1486 1485 1484 1483 1482 1481 1480 1479 1478 1477 1476 1475 1474 1473 1473 1472 1471 1470 1470 1470 1470 1470 1471 1471 1471 1471 1470 1470 1469 1468 1468 1468 1468 1468 1468 1468 1468 1468 1468 1468 1468 1467 1467 1467 1467 1467 1467 1467 1467 1467 1467 1467 1467 1468 1468 1468 1469 1469 1470 1471 1471 1472 1473 1473 1474 1474 1475 1475 1476 1476 1476 1477 1477 1478 1479 1480 1481 1482 1483 1484 1486 1487 1488 1490 1491 1493 1493 1495 1496 1497 1498 1499 1500 1501
1498 1496 1495 1493 1492 1491 1489 1488 1487 1485 1484 1483 1482 1481 1480 1479 1478 1477 1476 1475 1474 1473 1472 1471 1471 1470 1469 1468 1468 1469 1469 1469 1470 1469 1469 1468 1468 1467 1466 1466 1465 1465 1465 1465 1465 1464 1465 1465 1465 1465 1465 1465 1465 1464 1465 1465 1465 1465 1465 1465 1465 1465 1465 1466 1466 1467 1468 1468 1468 1469 1470 1471 1471 1472 1473 1473 1474 1475 1475 1476 1476 1476 1476 1477 1478 1479 1480 1481 1482 1483 1485 1486 1488 1489 1490 1492 1493 1494 1495 1496 1497 1498 1499
1497 1495 1494 1493 1491 1490 1488 1487 1486 1484 1483 1482 1481 1480 1479 1478 1477 1476 1475 1474 1473 1472 1471 1470 1470 1469 1468 1468 1467 1468 1468 1468 1468 1468 1467 1467 1465 1465 1464 1464 1464 1463 1463 1463 1462 1462 1462 1462 1462 1462 1462 1462 1462 1462 1463 1463 1463 1463 1463 1463 1463 1463 1463 1463 1464 1465 1466 1466 1466 1467 1468 1468 1469 1470 1471 1472 1473 1473 1474 1475 1475 1475 1475 1475 1476 1477 1478 1478 1480 1481 1483 1484 1486 1487 1488 1490 1491 1492 1493 1494 1495 1496 1498
1496 1495 1493 1492 1491 1489 1488 1486 1485 1483 1482 1481 1480 1479 1478 1477 1476 1475 1474 1473 1473 1471 1470 1469 1468 1468 1468 1467 1466 1466 1467 1466 1466 1466 1466 1465 1465 1464 1463 1463 1462 1462 1461 1461 1461 1460 1459 1459 1459 1460 1460 1459 1460 1460 1460 1460 1460 1460 1461 1461 1461 1461 1461 1462 1462 1463 1463 1464 1464 1465 1466 1466 1467 1468 1468 1469 1471 1472 1473 1473 1474 1474 1474 1473 1474 1475 1476 1477 1478 1479 1480 1482 1483 1485 1487 1488 1489 1490 1491 1492 1493 1494 1495
1496 1494 1493 1491 1490 1488 1487 1485 1484 1483 1481 1480 1478 1478 1476 1475 1474 1473 1473 1472 1471 1470 1469 1468 1467 1467 1467 1466 1465 1465 1465 1465 1465 1465 1465 1464 1464 1464 1463 1462 1461 1460 1459 1459 1459 1459 1458 1457 1457 1457 1457 1457 1457 1458 1458 1458 1458 1458 1458 1459 1460 1459 1459 1460 1461 1461 1462 1462 1462 1463 1463 1464 1465 1465 1466 1467 1468 1469 1471 1472 1472 1473 1473 1473 1473 1473 1474 1475 1475 1477 1478 1480 1481 1483 1485 1487 1488 1488 1489 1490 1492 1493 1493
1495 1494 1492 1491 1489 1488 1486 1484 1483 1482 1480 1478 1477 1476 1475 1474 1473 1473 1472 1471 1470 1469 1468 1468 1466 1465 1465 1464 1463 1463 1463 1463 1464 1464 1464 1463 1463 1463 1462 1461 1460 1459 1457 1457 1457 1456 1457 1456 1454 1454 1454 1454 1455 1455 1455 1455 1455 1455 1456 1457 1457 1457 1458 1459 1459 1459 1459 1460 1460 1461 1461 1462 1463 1463 1465 1465 1466 1467 1468 1469 1469 1470 1471 1471 1471 1471 1472 1473 1473 1475 1476 1478 1479 1481 1483 1484 1486 1487 1488 1489 1490 1491 1492
1495 1493 1492 1490 1488 1487 1485 1484 1482 1481 1479 1478 1477 1475 1474 1473 1472 1471 1470 1470 1469 1468 1467 1467 1466 1464 1463 1462 1462 1461 1461 1462 1462 1462 1462 1462 1462 1461 1460 1461 1459 1458 1457 1457 1455 1454 1454 1454 1453 1452 1451 1451 1452 1452 1452 1453 1453 1453 1453 1454 1454 1455 1456 1457 1457 1458 1458 1458 1458 1459 1459 1460 1460 1461 1463 1463 1464 1465 1466 1467 1468 1468 1469 1470 1470 1470 1470 1471 1472 1473 1474 1476 1477 1478 1480 1482 1483 1484 1486 1487 1488 1489 1490
1494 1493 1491 1490 1488 1486 1485 1483 1482 1480 1479 1478 1476 1474 1473 1472 1471 1470 1469 1468 1468 1467 1466 1465 1464 1463 1462 1461 1460 1459 1459 1460 1460 1460 1460 1461 1461 1460 1460 1459 1458 1456 1456 1456 1454 1452 1451 1452 1452 1451 1450 1449 1449 1450 1450 1451 1451 1451 1452 1452 1453 1454 1454 1454 1454 1455 1455 1456 1457 1457 1458 1458 1458 1459 1460 1461 1463 1463 1464 1465 1466 1466 1467 1468 1468 1469 1469 1469 1470 1471 1473 1474 1475 1477 1478 1479 1481 1482 1483 1485 1486 1487 1488
1493 1492 1491 1489 1488 1486 1484 1483 1481 1479 1478 1477 1475 1474 1472 1471 1470 1469 1468 1467 1467 1466 1465 1464 1463 1463 1462 1460 1458 1457 1457 1457 1458 1458 1458 1459 1459 1460 1459 1458 1457 1456 1455 1454 1453 1451 1449 1450 1450 1450 1449 1449 1448 1448 1448 1449 1449 1449 1450 1450 1451 1452 1453 1453 1453 1453 1453 1454 1455 1456 1456 1456 1457 1457 1458 1459 1460 1461 1462 1463 1464 1465 1465 1466 1467 1467 1467 1467 1468 1469 1471 1472 1473 1474 1476 1477 1478 1480 1481 1483 1484 1485 1487
1492 1491 1490 1488 1487 1485 1483 1482 1480 1478 1477 1476 1474 1473 1472 1470 1469 1468 1467 1466 1466 1465 1464 1463 1462 1461 1461 1459 1457 1456 1454 1454 1455 1456 1457 1457 1458 1458 1458 1458 1458 1456 1454 1452 1450 1448 1448 1449 1449 1448 1447 1447 1447 1447 1447 1447 1447 1448 1448 1448 1449 1450 1451 1451 1451 1451 1452 1452 1453 1454 1454 1455 1455 1456 1456 1457 1458 1459 1460 1461 1462 1462 1463 1464 1465 1465 1465 1466 1466 1467 1468 1469 1471 1472 1473 1475 1476 1478 1479 1480 1482 1483 1484
1492 1490 1489 1488 1486 1484 1483 1481 1479 1477 1476 1475 1473 1472 1471 1469 1468 1467 1466 1465 1464 1464 1463 1462 1461 1460 1459 1458 1457 1455 1453 1452 1452 1453 1455 1455 1455 1456 1456 1456 1456 1455 1454 1452 1449 1449 1448 1448 1448 1447 1445 1445 1445 1445 1445 1445 1445 1446 1446 1447 1447 1448 1448 1449 1449 1450 1450 1451 1451 1452 1453 1453 1453 1453 1454 1455 1456 1456 1457 1458 1459 1460 1461 1462 1463 1463 1463 1464 1464 1465 1465 1467 1468 1469 1471 1473 1474 1475 1477 1478 1479 1481 1482
1491 1489 1488 1487 1485 1483 1482 1480 1478 1477 1475 1474 1472 1471 1469 1468 1467 1466 1465 1464 1463 1463 1462 1461 1459 1458 1457 1457 1456 1454 1453 1451 1451 1451 1452 1452 1453 1453 1453 1453 1453 1452 1452 1451 1451 1450 1448 1448 1448 1447 1445 1445 1444 1443 1444 1444 1444 1444 1444 1445 1445 1446 1446 1447 1448 1448 1448 1448 1449 1450 1451 1451 1452 1452 1452 1453 1453 1454 1455 1456 1457 1458 1458 1460 1461 1461 1462 1463 1463 1463 1463 1464 1465 1467 1469 1470 1472 1473 1475 1476 1477 1478 1480
1490 1488 1487 1486 1484 1483 1481 1479 1478 1476 1474 1473 1471 1470 1468 1467 1466 1465 1464 1463 1462 1461 1460 1459 1458 1457 1456 1455 1454 1453 1452 1450 1450 1449 1449 1449 1450 1450 1451 1451 1451 1451 1450 1449 1449 1449 1449 1448 1447 1446 1447 1445 1443 1442 1443 1442 1442 1442 1442 1443 1443 1443 1444 1444 1445 1446 1446 1447 1447 1448 1448 1449 1449 1450 1450 1451 1451 1452 1453 1453 1454 1455 1457 1458 1458 1459 1460 1460 1461 1462 1462 1462 1463 1464 1467 1468 1470 1471 1473 1474 1475 1476 1478
1489 1488 1486 1485 1483 1482 1480 1478 1477 1475 1473 1472 1470 1469 1468 1466 1465 1464 1463 1461 1460 1459 1458 1458 1457 1456 1455 1454 1453 1452 1451 1449 1448 1448 1448 1448 1447 1448 1449 1450 1449 1449 1449 1448 1448 1448 1447 1447 1446 1447 1447 1445 1443 1442 1442 1441 1440 1440 1440 1441 1441 1441 1442 1442 1443 1443 1444 1445 1445 1446 1447 1447 1447 1448 1448 1449 1449 1450 1451 1452 1452 1453 1454 1455 1456 1456 1457 1458 1459 1459 1460 1460 1461 1462 1464 1466 1468 1469 1470 1472 1473 1474 1476
1488 1487 1485 1483 1482 1481 1479 1478 1476 1474 1473 1471 1469 1468 1467 1465 1464 1463 1461 1460 1458 1458 1457 1456 1455 1454 1453 1453 1452 1451 1450 1448 1447 1446 1447 1447 1445 1445 1446 1447 1447 1447 1447 1447 1446 1446 1446 1445 1445 1445 1445 1444 1444 1443 1441 1440 1440 1439 1438 1438 1439 1439 1439 1440 1440 1441 1441 1442 1443 1444 1445 1445 1446 1446 1447 1447 1448 1448 1448 1449 1450 1451 1452 1453 1453 1454 1455 1456 1457 1457 1458 1458 1459 1460 1462 1463 1465 1467 1468 1469 1471 1472 1473